全球星 M069星 (GLOBALSTAR M069)

导读 | 星芒AI

GLOBALSTAR M069 是 Globalstar 卫星通信公司运营的一颗低轨移动通信卫星,属于其第二代卫星星座(Globalstar 2)的一部分。该卫星设计用于提供全球范围内的语音和数据通信服务,主要面向手持终端和移动设备用户。M069 卫星运行在近地轨道,采用先进的通信技术,以提高信号质量和网络覆盖。它是 Globalstar 扩展其卫星通信能力、支持物联网和应急通信应用的重要组成部分。

基本信息
目录编号:
31573
目录名称:
GLOBALSTAR M069
国际标识:
2007-020C
轨道中心:
EARTH
卫星名称:
全球星 M069星
卫星全名:
全球星 M069星 (GLOBALSTAR M069)
卫星状态:
在轨 (已飞行6728 天)
发射日期:
2007-05-29 UTC
国别 :
(GLOB)
星等 :
--
轨道信息
数据来源 国际轨道数据 AOE轨道数据
星历时间 2025-10-28T18:36:48+0800
1天前
查看轨道信息
2025-10-28T21:00:00+0800
1天前
查看轨道信息
半长轴 7955.634km 7955.637km
偏心率 0.000263 0.0002625
轨道倾角 52.002° 52.001°
近地点辐角 44.182° 47.690°
升交点赤经 188.052° 187.771°
平近点角 126.855° 201.524°
近地点 1575.406km 1575.413km
远地点 1579.592km 1579.591km
周期 117.699分钟 117.699分钟
每日圈数 12.234623 12.234616
详细信息
固有亮度:
5
最大亮度:
7.9
平衡模式:
三轴稳定
覆盖范围:
全球
运营商:
全球星公司
运营商所在国:
美国
使用方式:
暂无
卫星简介
全球星星座由48颗卫星加8颗备份星组成。这些卫星分布在8个倾角为52度的圆形轨道平面上,每个轨道平面6颗卫星,另有1 颗备用星。轨道高度约为1414km,传输时延和处理时延小于300ms,整个系统的覆盖区为南北纬70度以内的地区。该卫星已退役。
2D轨道图
3D轨道图
轨道高度分析图
轨道倾角分析图
轨道综合分析图
查看轨道综合分析图